When you browse on this site, cookies collect data to enhance your experience and personalize the content and advertising you see.
Visit our Privacy Policy to learn more. By continuing to use the site, you agree to this use of cookies and data.
  • In Lithuania
  • List of Countries
  • For 7 days
  • Water Temperature
  • Satellite Maps
  • Weather Map
  • Weather Widgets
  • user-avatar
    Login

    Hourly Weather Canillo

    Today, 20 February, Wednesday

    Time Temperature Precipitation Wind Pressure Humidity
    00:00 0°C° 0 mm 1 mps 618 mmHg 72%
    01:00 0°C° 0 mm 1 mps 618 mmHg 71%
    02:00 -1°C° 0 mm 1 mps 618 mmHg 70%
    03:00 -1°C° 0 mm 1 mps 617 mmHg 69%
    04:00 -1°C° 0 mm 1 mps 617 mmHg 68%
    05:00 -1°C° 0 mm 1 mps 617 mmHg 66%
    06:00 -1°C° 0 mm 1 mps 617 mmHg 64%
    07:00 +1°C° 0 mm 1 mps 618 mmHg 59%
    08:00 +2°C° 0 mm 0 mps 620 mmHg 54%
    09:00 +4°C° 0 mm 0 mps 621 mmHg 49%
    10:00 +5°C° 0 mm 0 mps 621 mmHg 45%
    11:00 +8°C° 0 mm 1 mps 622 mmHg 42%
    12:00 +9°C° 0 mm 1 mps 622 mmHg 39%
    13:00 +8°C° 0 mm 1 mps 622 mmHg 42%
    14:00 +8°C° 0 mm 1 mps 622 mmHg 45%
    15:00 +8°C° 0 mm 1 mps 621 mmHg 48%
    16:00 +6°C° 0 mm 1 mps 621 mmHg 58%
    17:00 +2°C° 0 mm 0 mps 620 mmHg 68%
    18:00 0°C° 0 mm 0 mps 619 mmHg 79%
    19:00 0°C° 0 mm 0 mps 619 mmHg 78%
    20:00 +1°C° 0 mm 1 mps 620 mmHg 77%
    21:00 +1°C° 0 mm 1 mps 620 mmHg 76%
    22:00 +1°C° 0 mm 1 mps 620 mmHg 75%
    23:00 +1°C° 0 mm 1 mps 620 mmHg 73%

    Tomorrow, 21 February, Thursday

    Time Temperature Precipitation Wind Pressure Humidity
    00:00 +1°C° 0 mm 1 mps 621 mmHg 72%
    01:00 +1°C° 0 mm 1 mps 621 mmHg 70%
    02:00 +1°C° 0 mm 1 mps 621 mmHg 69%
    03:00 0°C° 0 mm 1 mps 621 mmHg 67%
    04:00 0°C° 0 mm 1 mps 621 mmHg 66%
    05:00 0°C° 0 mm 1 mps 621 mmHg 64%
    06:00 0°C° 0 mm 1 mps 621 mmHg 63%
    07:00 +2°C° 0 mm 1 mps 622 mmHg 57%
    08:00 +4°C° 0 mm 1 mps 623 mmHg 52%
    09:00 +6°C° 0 mm 1 mps 624 mmHg 47%
    10:00 +7°C° 0 mm 1 mps 624 mmHg 43%
    11:00 +9°C° 0 mm 1 mps 625 mmHg 39%
    12:00 +10°C° 0 mm 1 mps 626 mmHg 35%
    13:00 +10°C° 0 mm 1 mps 625 mmHg 37%
    14:00 +10°C° 0 mm 1 mps 625 mmHg 39%
    15:00 +9°C° 0 mm 1 mps 625 mmHg 40%
    16:00 +7°C° 0 mm 1 mps 624 mmHg 49%
    17:00 +5°C° 0 mm 1 mps 623 mmHg 57%
    18:00 +3°C° 0 mm 1 mps 623 mmHg 66%
    19:00 +2°C° 0 mm 1 mps 623 mmHg 65%
    20:00 +2°C° 0 mm 1 mps 623 mmHg 64%
    21:00 +2°C° 0 mm 1 mps 624 mmHg 63%
    22:00 +2°C° 0 mm 1 mps 624 mmHg 63%
    23:00 +2°C° 0 mm 1 mps 624 mmHg 63%

    Day after tomorrow, 22 February, Friday

    Time Temperature Precipitation Wind Pressure Humidity
    00:00 +2°C° 0 mm 1 mps 624 mmHg 63%
    01:00 +2°C° 0 mm 1 mps 624 mmHg 60%
    02:00 +2°C° 0 mm 1 mps 623 mmHg 57%
    03:00 +2°C° 0 mm 1 mps 623 mmHg 55%
    04:00 +2°C° 0 mm 1 mps 623 mmHg 49%
    05:00 +2°C° 0 mm 1 mps 623 mmHg 44%
    06:00 +2°C° 0 mm 1 mps 623 mmHg 38%
    07:00 +4°C° 0 mm 1 mps 624 mmHg 35%
    08:00 +6°C° 0 mm 1 mps 625 mmHg 31%
    09:00 +7°C° 0 mm 1 mps 626 mmHg 28%
    10:00 +9°C° 0 mm 1 mps 626 mmHg 25%
    11:00 +11°C° 0 mm 1 mps 627 mmHg 23%
    12:00 +13°C° 0 mm 1 mps 627 mmHg 20%
    13:00 +13°C° 0 mm 1 mps 627 mmHg 24%
    14:00 +12°C° 0 mm 1 mps 626 mmHg 27%
    15:00 +12°C° 0 mm 1 mps 626 mmHg 31%
    16:00 +10°C° 0 mm 1 mps 625 mmHg 37%
    17:00 +7°C° 0 mm 1 mps 623 mmHg 43%
    18:00 +4°C° 0 mm 1 mps 622 mmHg 49%
    19:00 +4°C° 0 mm 1 mps 622 mmHg 42%
    20:00 +3°C° 0 mm 2 mps 622 mmHg 35%
    21:00 +3°C° 0 mm 2 mps 622 mmHg 28%
    22:00 +4°C° 0 mm 1 mps 622 mmHg 24%
    23:00 +4°C° 0 mm 1 mps 622 mmHg 20%

    23 February, Saturday

    Time Temperature Precipitation Wind Pressure Humidity
    00:00 +4°C° 0 mm 1 mps 622 mmHg 15%
    01:00 +4°C° 0 mm 1 mps 622 mmHg 15%
    02:00 +4°C° 0 mm 1 mps 622 mmHg 14%
    03:00 +4°C° 0 mm 1 mps 622 mmHg 14%
    04:00 +4°C° 0 mm 1 mps 622 mmHg 14%
    05:00 +4°C° 0 mm 1 mps 622 mmHg 14%
    06:00 +4°C° 0 mm 1 mps 622 mmHg 14%
    07:00 +6°C° 0 mm 1 mps 623 mmHg 17%
    08:00 +8°C° 0 mm 1 mps 625 mmHg 20%
    09:00 +9°C° 0 mm 0 mps 626 mmHg 23%
    10:00 +12°C° 0 mm 1 mps 626 mmHg 22%
    11:00 +13°C° 0 mm 1 mps 627 mmHg 21%
    12:00 +15°C° 0 mm 1 mps 627 mmHg 20%
    13:00 +14°C° 0 mm 1 mps 627 mmHg 24%
    14:00 +14°C° 0 mm 2 mps 626 mmHg 28%
    15:00 +13°C° 0 mm 2 mps 626 mmHg 32%
    16:00 +9°C° 0 mm 2 mps 625 mmHg 39%
    17:00 +7°C° 0 mm 2 mps 624 mmHg 47%
    18:00 +5°C° 0 mm 1 mps 623 mmHg 54%
    19:00 +4°C° 0 mm 1 mps 623 mmHg 48%
    20:00 +3°C° 0 mm 2 mps 623 mmHg 42%
    21:00 +2°C° 0 mm 2 mps 623 mmHg 36%
    22:00 +2°C° 0 mm 2 mps 623 mmHg 32%
    23:00 +3°C° 0 mm 1 mps 623 mmHg 29%

    24 February, Sunday

    Time Temperature Precipitation Wind Pressure Humidity
    00:00 +3°C° 0 mm 1 mps 623 mmHg 25%
    01:00 +3°C° 0 mm 1 mps 623 mmHg 26%
    02:00 +3°C° 0 mm 1 mps 623 mmHg 27%
    03:00 +3°C° 0 mm 1 mps 623 mmHg 27%
    04:00 +2°C° 0 mm 1 mps 623 mmHg 30%
    05:00 +2°C° 0 mm 1 mps 623 mmHg 33%
    06:00 +2°C° 0 mm 1 mps 623 mmHg 36%
    07:00 +4°C° 0 mm 1 mps 624 mmHg 35%
    08:00 +6°C° 0 mm 1 mps 625 mmHg 35%
    09:00 +7°C° 0 mm 1 mps 626 mmHg 35%
    10:00 +9°C° 0 mm 1 mps 626 mmHg 33%
    11:00 +10°C° 0 mm 1 mps 627 mmHg 31%
    12:00 +11°C° 0 mm 1 mps 627 mmHg 29%
    13:00 +10°C° 0 mm 1 mps 627 mmHg 32%
    14:00 +10°C° 0 mm 1 mps 626 mmHg 35%
    15:00 +10°C° 0 mm 1 mps 626 mmHg 38%
    16:00 +7°C° 0 mm 1 mps 625 mmHg 49%
    17:00 +5°C° 0 mm 1 mps 624 mmHg 59%
    18:00 +3°C° 0 mm 1 mps 624 mmHg 69%
    19:00 +3°C° 0 mm 1 mps 623 mmHg 69%
    20:00 +2°C° 0 mm 1 mps 623 mmHg 69%
    21:00 +2°C° 0 mm 1 mps 623 mmHg 69%
    22:00 +2°C° 0 mm 1 mps 623 mmHg 66%
    23:00 +1°C° 0 mm 1 mps 623 mmHg 63%

    25 February, Monday

    Time Temperature Precipitation Wind Pressure Humidity
    00:00 +1°C° 0 mm 1 mps 623 mmHg 60%
    01:00 +1°C° 0 mm 1 mps 623 mmHg 57%
    02:00 +1°C° 0 mm 1 mps 623 mmHg 54%
    03:00 +1°C° 0 mm 1 mps 623 mmHg 52%
    04:00 +1°C° 0 mm 1 mps 623 mmHg 51%
    05:00 +1°C° 0 mm 1 mps 622 mmHg 51%
    06:00 +1°C° 0 mm 1 mps 622 mmHg 50%
    07:00 +3°C° 0 mm 1 mps 623 mmHg 46%
    08:00 +4°C° 0 mm 0 mps 624 mmHg 42%
    09:00 +6°C° 0 mm 0 mps 625 mmHg 37%
    10:00 +7°C° 0 mm 0 mps 625 mmHg 35%
    11:00 +10°C° 0 mm 1 mps 625 mmHg 33%
    12:00 +11°C° 0 mm 1 mps 625 mmHg 31%
    13:00 +11°C° 0 mm 1 mps 625 mmHg 35%
    14:00 +10°C° 0 mm 1 mps 624 mmHg 39%
    15:00 +10°C° 0 mm 1 mps 624 mmHg 43%
    16:00 +7°C° 0 mm 1 mps 623 mmHg 56%
    17:00 +4°C° 0 mm 0 mps 622 mmHg 70%
    18:00 +2°C° 0 mm 0 mps 621 mmHg 84%
    19:00 +3°C° 0 mm 1 mps 621 mmHg 86%
    20:00 +2°C° 0 mm 1 mps 621 mmHg 88%
    21:00 +2°C° 0 mm 1 mps 622 mmHg 90%
    22:00 +1°C° 0 mm 2 mps 621 mmHg 91%
    23:00 +1°C° 0 mm 2 mps 621 mmHg 92%
    Show more